Volver al catálogo

CENTISPACE-2 S4

ActivoNavegaciónLEO
NORAD 68353·PAYLOAD·🇨🇳 China

Lanzado Mar 22, 2026 desde Yellow Sea Launch Area

Loading…

Próximos Pases (próximas 24 horas)

TLE

ActualizadoSource: Space-Track

Época: Sep 14, 2026, 18:09 UTC

1 68353U 26060D   26257.75635164 -.00000024  00000-0  56920-4 0  9991
2 68353  54.9807  47.9113 0009235 268.3323  91.6596 14.25047121 25719

Sigue CENTISPACE-2 S4 en tiempo real con AllMySat

Download on the App Store